DELTA 1 DEB, 28662

Orbit data source: Space-Track

DELTA 1 DEB, 28662 is space debris in LEO originally from a launch on Sat, 06 Nov 1965 UTC launched from the Air Force Eastern Test Range (AFETR). Debris objects in space refer to the collection of defunct objects orbiting the Earth. Examples of debris include non-operational satellites, rocket bodies, and fragments generated from explosions, collisions, or faulty payload assembly.

Loading next visibility...
Identifier
28662, 1965-089G
Orbit
LEO
Country
Flag of USUS
Related business
Manufacturer
Unknown
Mission
Spacecraft
Bus & Motor
Unknown
Mass
Unknown
Launch date (UTC)
1965-11-06 (61 years ago)
Launch vehicle
Unknown
Launch site
Air Force Eastern Test Range (AFETR)
Object type
Payload
Rocket body
Debris
Shape & HBR
Unknown shape, 0.1 m
Radar Cross Section
Small (<0.1 m²)

Expand to show TLE details & history
Last TLE update: 3 weeks ago

TLE from 3 weeks ago
0 DELTA 1 DEB
1 28662U 65089G   26185.02620731  .00001279  00000-0  49605-2 0  9990
2 28662  59.3956 284.3796 0746080 163.5330  13.0679 12.25200457983899
Epoch: 2026-07-04T00:37Z
TLE epoch observation values (Epoch: 2026-07-04T00:37:44.311Z)
Latitude
1.02054°
Longitude
172.29862°
Altitude
996.047 km
Speed
7.616 km/s
True Right ascension
06h 55m 06s
True Declination
1° 00' 53"
Sunlit
Object was in daylight at epoch
Visualization orbit readout
Latitude
Unknown
Longitude
Unknown
Altitude
Unknown
Speed
Unknown
Apparent Right ascension
Unknown
Apparent Declination
Unknown
Sunlit
N/A
Visualization observer readout
Local Sidereal Time
15:15:05
Azimuth
Unknown
Elevation
Unknown
Doppler factor
Unknown
Orbital elements
Apogee altitude
2,162.301 km
Perigee altitude
976.408 km
Semi-major axis
7,947.491 km
Eccentricity
0.07461
Inclination
59.3956°
RAAN
284.3796°
Arg. of periapsis
163.533°
True anomaly
15.19277°
Mean anomaly
13.0679°
Eccentric anomaly
14.11001°
Mean motion
3.06336 °/min
Orbital period
117.52 mins
BSTAR
0.0049605
Loading maneuver chart data...
Computing Atmospheric mass density...
Loading historical data...
Loading historical data...
Loading historical data...
Loading historical data...
Loading historical data...
Loading historical data...
Loading historical data...

Documentation

Showing up to 5 results
|